Regional Weather Roundup
Issued by NWS

Home | Current Version | Previous Version | Text Only | Print | Product List | Glossary On
Versions: 1 2 3 4 5 6 7 8 9 10 11 12 13 14 15 16 17 18 19 20 21 22 23 24 25 26 27 28 29 30 31 32 33 34 35 36 37 38 39 40 41 42 43 44 45 46 47 48 49 50
000
ASUS45 KBOU 061607
RWRCO

WEATHER ROUNDUP FOR COLORADO
NATIONAL WEATHER SERVICE DENVER/BOULDER CO
900 AM MST FRI MAR 06 2015

NOTE: "FAIR" INDICATES FEW OR NO CLOUDS BELOW 12000 FEET WITH NO
SIGNIFICANT WEATHER AND/OR OBSTRUCTIONS TO VISIBILITY.

COZ001>005-013-030-031-061700-
...NORTHWEST COLORADO...

CITY           SKY/WX    TMP DP  RH WIND       PRES   REMARKS
CRAIG          SUNNY     25  14  63 SE7       30.45R WCI  17
HAYDEN         SUNNY     19   9  63 SE8       30.43S WCI   9
MEEKER         SUNNY     29  15  56 NE5       30.45R WCI  24
MOUNT WERNER   NOT AVBL
STEAMBOAT SPGS SUNNY     14   9  81 CALM      30.45S
WALDEN         SUNNY     23  10  58 S9        30.37R WCI  13
$$

COZ006>008-011-061700-
...WEST CENTRAL VALLEYS...

CITY           SKY/WX    TMP DP  RH WIND       PRES   REMARKS
GRAND JUNCTION SUNNY     35  18  49 SE9       30.47R WCI  28
MONTROSE       SUNNY     29  15  56 SE3       30.49R
EAGLE          SUNNY     21  14  73 CALM      30.52R
RIFLE          SUNNY     29  16  58 NE6       30.49R WCI  23
DELTA          SUNNY     32  20  61 CALM      30.50R
NUCLA          SUNNY     32  14  47 CALM      30.48S
$$

COZ017>023-064>068-061700-
...SOUTHWEST COLORADO...

CITY           SKY/WX    TMP DP  RH WIND       PRES   REMARKS
DURANGO        SUNNY     26  15  63 CALM      30.42R
CORTEZ         SUNNY     31  19  61 CALM      30.43R
PAGOSA SPRINGS SUNNY     29   9  43 CALM      30.42R
TELLURIDE      SUNNY     27   5  39 SE5       30.43R WCI  21
WOLF CREEK PAS   N/A     27   0  31 CALM      30.47R
$$

COZ009-010-012-014-032>034-037-058>063-061700-
...CENTRAL COLORADO...

CITY           SKY/WX    TMP DP  RH WIND       PRES   REMARKS
ASPEN          SUNNY     23   9  54 CALM      30.43S
BUENA VISTA    SUNNY     27   8  44 CALM      30.39F
COPPER MTN     SUNNY     19   0  42 W7        30.40R WCI  10
BERTHOUD PASS  NOT AVBL
COTTONWOOD PAS SUNNY     32  -4  21 SE3       30.37F
GUNNISON       SUNNY      3 -11  51 SE3       30.54R
KREMMLING      SUNNY     16   9  73 CALM      30.49S
LEADVILLE      SUNNY     24  -1  33 N9        30.39R WCI  14
SALIDA         SUNNY     32   6  33 NW9       30.46S WCI  24
SUNLIGHT       SUNNY     23  10  58 CALM        N/A
WILKERSON PASS SUNNY     23  -6  28 N10G21    30.39R WCI  12
$$

COZ069>075-061700-
...SAN LUIS VALLEY/SANGRE DE CRISTO MOUNTAINS...

CITY           SKY/WX    TMP DP  RH WIND       PRES   REMARKS
ALAMOSA        SUNNY     26  13  57 CALM      30.44R
LA VETA PASS   SUNNY     27   1  33 S6G17     30.37R WCI  20
SAGUACHE       NOT AVBL
$$

COZ035-036-038>040-061700-
...NORTHERN COLORADO FRONT RANGE...

CITY           SKY/WX    TMP DP  RH WIND       PRES   REMARKS
DENVER INTL AP MOSUNNY   36  16  44 SW10      30.29R
DMNS CITY PARK   N/A     43  12  28 S3        30.30S
AURORA         MOSUNNY   37  10  32 S7        30.30R
FRONT RANGE AP NOT AVBL
ERIE MUNI ARPT SUNNY     33  15  47 CALM      30.29S
BOULDER MUN AP SUNNY     34  14  44 NW6       30.28R WCI  29
CENTENNIAL     MOSUNNY   34  14  43 SE7       30.29S WCI  28
BROOMFIELD     MOSUNNY   36  16  44 CALM      30.29R
FORT COLLINS   SUNNY     30  18  59 CALM      30.31R
LONGMONT       SUNNY     37  15  41 CALM      30.31R
$$

COZ041-046-047-076>085-087-088-061700-
...PIKES PEAK/PALMER DIVIDE AND SOUTHERN FOOTHILLS...

CITY           SKY/WX    TMP DP  RH WIND       PRES   REMARKS
COLO. SPRINGS  MOSUNNY   40  12  32 NE8       30.32R
A. F. ACADEMY  SUNNY     39   7  26 VRB1      30.30R
ELLICOTT       NOT AVBL
FALCON         SUNNY     41  10  28 CALM      30.33R
FORT CARSON    SUNNY     34  17  50 NW8       30.30R WCI  27
LIMON          SUNNY     28  14  55 CALM      30.32R
MONUMENT HILL  SUNNY     34  12  40 S5        30.30S WCI  30
TRINIDAD       SUNNY     38  19  46 W6        30.33R
$$

COZ042>045-048>051-090-091-061700-
...NORTHEAST COLORADO...

CITY           SKY/WX    TMP DP  RH WIND       PRES   REMARKS
GREELEY ARPT   SUNNY     30  18  59 CALM      30.30R
AKRON          SUNNY     37  20  50 W13       30.30R
BURLINGTON     SUNNY     44  23  43 W12       30.31R
WRAY           SUNNY     43  23  45 W12       30.30R
STERLING       SUNNY     36  28  75 S8        30.28S
HOLYOKE        SUNNY     46  19  34 NW13      30.27S
FORT MORGAN    SUNNY     33  24  69 W9        30.31S WCI  25
$$

COZ086-089-092>099-061700-
...SOUTHEAST COLORADO...

CITY           SKY/WX    TMP DP  RH WIND       PRES   REMARKS
PUEBLO         SUNNY     34  22  61 W3        30.33R
LA JUNTA       SUNNY     36  26  67 W6        30.35R
LAMAR          SUNNY     38  28  67 W8        30.34R
SPRINGFIELD      N/A     45  25  45 CALM      30.33R
$$


USA.gov is the U.S. government's official web portal to all federal, state and local government web resources and services.